Regional Weather Roundup
Issued by NWS Jackson, KY

Home | Current Version | Previous Version | Text Only | Print | Product List | Glossary On
Versions: 1 2 3 4 5 6 7 8 9 10 11 12 13 14 15 16 17 18 19 20 21 22 23 24 25 26 27
000
ASUS43 KJKL 182010
RWRJKL

EAST KENTUCKY HOURLY WEATHER ROUNDUP
NATIONAL WEATHER SERVICE JACKSON KY
300 PM EST MON DEC 18 2017

NOTE: "FAIR" INDICATES FEW OR NO CLOUDS BELOW 12,000 FEET WITH
NO SIGNIFICANT WEATHER AND/OR OBSTRUCTIONS TO VISIBILITY.

* THESE REPORTS ARE NOT UNDER NWS QUALITY CONTROL AND MAY NOT
  REPORT WEATHER SUCH AS PRECIPITATION AND FOG.

KYZ079-080-083-085-087-088-110-112-115-119-120-182100
...EASTERN KENTUCKY...

CITY           SKY/WX    TMP DP  RH WIND       PRES   REMARKS
JACKSON        CLOUDY    48  46  93 VRB5      30.07S FOG
LONDON         CLOUDY    50  47  89 SW7       30.08F
SOMERSET*      CLOUDY    46  46 100 W9        30.11S
MONTICELLO*    CLOUDY    50  48  93 W14       30.12F
WILLIAMSBURG*  CLOUDY    54  48  82 SW6       30.08F
MIDDLESBORO*   CLOUDY    48  46  93 S10       30.12F
HARLAN APT*    CLOUDY    50  45  81 CALM      30.09F
PIKE CO APT*   CLOUDY    53  46  74 SW6       30.06R
BIG SANDY APT* CLOUDY    51  47  85 W7        30.06S
MOREHEAD APT*  CLOUDY    46  45  93 SW10      30.07F FOG
$$

KYZ035-036-041-042-044-050-067-078-099-182100
...CENTRAL KENTUCKY...

CITY           SKY/WX    TMP DP  RH WIND       PRES   REMARKS
MT STERLING*   CLOUDY    46  45  93 W12       30.07F
FLEMING/MASON* CLOUDY    46  46 100 SW8       30.05F FOG
DANVILLE*      CLOUDY    46  45  93 SW10      30.08S
LEXINGTON      LGT RAIN  48  45  89 SW10      30.05F
FRANKFORT      CLOUDY    48  45  89 SW8       30.03F FOG
LOUISVILLE     LGT RAIN  48  46  93 SW9       30.06F FOG
LEBANON*       CLOUDY    48  46  93 SW13      30.08S
GLASGOW*       LGT RAIN  48  48 100 SW9       30.10F
BOWLING GREEN  CLOUDY    51  47  86 SW15      30.11F
$$

KYZ091>093-OHZ055-061-077-WVZ005-015-034-035-042-182100
...SOUTHERN OHIO/WEST VIRGINIA...

CITY           SKY/WX    TMP DP  RH WIND       PRES   REMARKS
COVINGTON      DRIZZLE   47  45  93 SW9       30.02F FOG
COLUMBUS       CLOUDY    47  42  83 SW9       30.00S
DAYTON         CLOUDY    45  43  93 SW14      30.00F
WILMINGTON     CLOUDY    45  45 100 SW9       30.01F FOG
HUNTINGTON     CLOUDY    50  44  80 SW6       30.05F
CHARLESTON     CLOUDY    51  44  77 W5        30.04F
PINEVILLE*     CLOUDY    56  46  69 MISG      30.09F
BECKLEY        CLOUDY    50  44  80 W10       30.04F
BLUEFIELD      PTSUNNY   48  41  76 SW17      30.06F
LOGAN CO APT*  CLOUDY    52  46  82 CALM      30.04S
$$

VAZ002-007-008-TNZ017-027-036-066-071-182100
...SOUTHWEST VIRGINIA/EAST TENNESSEE...

CITY           SKY/WX    TMP DP  RH WIND       PRES   REMARKS
WISE*          CLOUDY    46  46 100 SW14G24   30.09F
JONESVILLE*    MOCLDY    46  46 100 CALM      30.14F
ABINGDON*      CLOUDY    48  48 100 W15       30.11F FOG
BRISTOL        DRZL/FOG  48  48 100 SW8       30.14F VSB 1
MORRISTOWN*    CLOUDY    48  46  93 MISG      30.12F
SEVIERVILLE*   MOCLDY    52  46  82 CALM      30.13F
KNOXVILLE      PTSUNNY   53  50  89 SW12      30.12F
LAFOLLETTE*    CLOUDY    48  46  93 NE5       30.15F
OAK RIDGE      CLOUDY    50  49  96 VRB5      30.14F
CROSSVILLE     SUNNY     55  46  71 SW8       30.11F
NASHVILLE      PTSUNNY   54  47  77 W5        30.13F
$$

...KEY TO REMARKS...
VSB - VISIBILITY IN MILES
WCI - WIND CHILL INDEX
HX  - HEAT INDEX

$$




USA.gov is the U.S. government's official web portal to all federal, state and local government web resources and services.